Flag for U.S.A. Weather past 2 weeks in Decatur, Illinois, U.S.A.

Now
66 °F

Sunny.


Feels Like: 66 °F
Forecast: 35 / 63 °F
Wind: 15 mph from West

Location: Decatur Airport

Current Time: Mar 30, 2015 at 3:14:21 PM

Latest Report: Mar 30, 2015 at 2:54 PM


Visibility: 10 mi

Pressure: 30.06 "Hg

Humidity: 24%

Dew point: 28 °F

Location of DecaturLocation

Historic Weather in Decatur — Graph

°F

Decatur temperature yesterday

Maximum temperature yesterday: 53 °F (at 4:54 PM)
Minimum temperature yesterday: 28 °F (at 12:54 AM)
Average temperature yesterday: 42 °F

Past Weeks' High & Low Weather Summary

 TemperatureHumidityPressure
High75 °F (Mar 16, 4:54 PM)93% (Mar 19, 9:54 PM)30.38 "Hg (Mar 19, 9:54 PM)
Low20 °F (Mar 28, 3:54 AM)25% (Mar 30, 1:54 PM)29.84 "Hg (Mar 25, 12:02 AM)
Average42 °F66%30.14 "Hg
* Reported Mar 15 1:54 PM — Mar 30 1:54 PM, Decatur, Weather by CustomWeather, © 2015

Note: Actual official high and low records may vary slightly from our data, if they occured in-between our weather recording intervals... More about our weather records

Advertising

Decatur weather history for previous 24 hours

 ConditionsComfort  
Time TempWeatherWind HumidityBarometerVisibility
1:54 PM
Mon, Mar 30
65 °FSunny.15 mph25%30.09 "Hg10 mi
12:54 PM63 °FSunny.13 mph28%30.11 "Hg10 mi
11:54 AM61 °FSunny.10 mph30%30.14 "Hg10 mi
10:54 AM57 °FSunny.7 mph39%30.16 "Hg10 mi
9:54 AM53 °FSunny.9 mph43%30.16 "Hg10 mi
8:54 AM49 °FSunny.5 mph50%30.15 "Hg10 mi
7:54 AM44 °FSunny.8 mph58%30.15 "Hg10 mi
6:54 AM43 °FClear.10 mph58%30.12 "Hg10 mi
5:54 AM43 °FClear.10 mph60%30.10 "Hg10 mi
4:54 AM42 °FClear.8 mph62%30.08 "Hg10 mi
3:54 AM43 °FClear.9 mph62%30.07 "Hg10 mi
2:54 AM44 °FClear.8 mph60%30.08 "Hg10 mi
1:54 AM45 °FClear.9 mph63%30.07 "Hg10 mi
12:54 AM47 °FClear.10 mph66%30.06 "Hg10 mi
11:54 PM
Sun, Mar 29
49 °FClear.8 mph69%30.04 "Hg10 mi
10:54 PM51 °FClear.10 mph66%30.02 "Hg10 mi
9:54 PM50 °FPassing clouds.13 mph68%29.99 "Hg10 mi
8:54 PM51 °FOvercast.12 mph69%29.97 "Hg10 mi
7:54 PM51 °FOvercast.13 mph69%29.94 "Hg10 mi
6:54 PM51 °FSunny.13 mph69%29.93 "Hg10 mi
5:54 PM52 °FSunny.16 mph61%29.92 "Hg10 mi
4:54 PM53 °FSunny.22 mph59%29.93 "Hg10 mi
3:54 PM47 °FPartly sunny.13 mph69%29.95 "Hg10 mi
Weather by CustomWeather, © 2015

See weather overviewHow to use our weather pages